sat.trackr.live / text

‹ back to catalog

STARLINK-31371

NORAD 58940 · 2024-027K

PAYLOAD ACTIVE UNKNOWN

§ Identity

Operator
Country
US
Launch date
2024-02-10
Launch site
AFWTR
Launch vehicle
Mass (kg)
RCS (m²)

Purposes: comms

External: N2YO · Heavens-Above · Gunter

§ Orbital elements

Epoch: 2026-05-25T03:51:39.364992Z

Period
94.11 min
Inclination
53.1620°
Eccentricity
0.0001058
Mean motion
15.30197986 rev/d
Perigee alt
474.5 km
Apogee alt
475.9 km
Semi-major
6,853.4 km
B*
6.3517e-5
RAAN
314.6166°
Arg perigee
93.5257°
Mean anomaly
266.5865°
Rev number
12,903

§ Raw data

STARLINK-313711 58940U 24027K   26145.16087228  .00001522  00000+0  63517-4 0  99982 58940  53.1620 314.6166 0001058  93.5257 266.5865 15.30197986129039

JSON: /api/v1/satellites/58940 · /tle

For live sub-satellite position, see the globe view (requires WebGL).

§ Visibility from observer

Set your observer location to see the next 7 days of passes ≥ 10°. The values pass through the URL so the page stays shareable.

No JS? Fill the form by hand. The geolocation button needs JavaScript.